Brookings, OR

10:30 PM PST on December 05, 2016 (GMT -0800)
Brookings State

Weather History for KBOK - September, 2012

Change the Weather History Date:

Thursday, September 27, 2012

  Actual Average Record
Temperature  
Mean Temperature 55 °F -  
Max Temperature 65 °F 68 °F 92 °F (1974)
Min Temperature 45 °F 51 °F 43 °F (1938)
Degree Days  
Heating Degree Days 10    
Growing Degree Days 5 (Base 50)    
Moisture  
Dew Point 51 °F    
Average Humidity 95    
Maximum Humidity 100    
Minimum Humidity 65    
Precipitation  
Precipitation 0.00 in - - ()
Sea Level Pressure  
Sea Level Pressure 29.92 in    
Wind  
Wind Speed 3 mph (WNW)    
Max Wind Speed 6 mph    
Max Gust Speed -    
Visibility 3 miles    
Events Fog , Rain    
Averages and records for this station are not official NWS values.
T = Trace of Precipitation, MM = Missing Value Source: NWS Daily Summary

Daily Weather History Graph

Daily Weather History Graph

Search for Another Location

Airport or City:

Trip Planner

Search our weather history database for the weather conditions in past years. The results will help you decide how hot, cold, wet, or windy it might be!

Date:

Astronomy

Sep. 27, 2012 Rise Set
Actual Time 7:10 AM PDT 7:04 PM PDT
Civil Twilight 6:42 AM PDT 7:32 PM PDT
Nautical Twilight 6:10 AM PDT 8:04 PM PDT
Astronomical Twilight 5:37 AM PDT 8:37 PM PDT
Moon 5:40 PM PDT (9/27) 4:43 AM PDT (9/27)
Length of Visible Light 12h 49m
Length of Day
11h 54m
Waxing Gibbous, 94% of the Moon is Illuminated
Sep 27
Waxing Gibbous
Sep 29
Full
Oct 8
Last Quarter
Oct 15
New
Oct 21
First Quarter

Hourly Weather History & Observations

Time (PDT) Temp. Windchill Dew Point Humidity Pressure Visibility Wind Dir Wind Speed Gust Speed Precip Events Conditions
12:05 AM 50.0 °F - 50.0 °F 100% 29.94 in 0.2 mi NNW 4.6 mph - N/A Fog Fog
12:15 AM 50.0 °F - 50.0 °F 100% 29.94 in 0.2 mi NNW 4.6 mph - N/A Fog Fog
12:56 AM 48.9 °F - 48.9 °F 100% 29.94 in 0.2 mi NNW 3.5 mph - 0.00 in Fog , Rain Light Rain
1:45 AM 48.2 °F - 48.2 °F 100% 29.93 in 0.2 mi Calm Calm - 0.00 in Fog Fog
1:56 AM 48.9 °F - 48.9 °F 100% 29.93 in 0.2 mi Calm Calm - 0.00 in Fog Fog
2:40 AM 48.2 °F - 48.2 °F 100% 29.92 in 0.2 mi NNW 3.5 mph - N/A Fog Fog
2:56 AM 46.9 °F - 46.9 °F 100% 29.93 in 0.5 mi North 3.5 mph - N/A Fog Fog
2:58 AM 46.4 °F 44.3 °F 46.4 °F 100% 29.92 in 1.0 mi NNW 4.6 mph - N/A   Overcast
3:04 AM 46.4 °F 45.2 °F 46.4 °F 100% 29.92 in 0.5 mi NW 3.5 mph - N/A Fog Fog
3:14 AM 46.4 °F 44.3 °F 46.4 °F 100% 29.92 in 0.2 mi North 4.6 mph - N/A Fog Fog
3:25 AM 48.2 °F - - N/A% 29.92 in 0.2 mi NNW 3.5 mph - 0.00 in Rain Light Rain
3:56 AM 47.8 °F - - N/A% 29.92 in 0.2 mi Calm Calm - 0.00 in Fog Fog
5:56 AM 47.8 °F - - N/A% 29.93 in 0.2 mi Calm Calm - N/A Fog Fog
6:56 AM 45.9 °F 42.9 °F - N/A% 29.93 in 0.2 mi NNW 5.8 mph - 0.00 in Rain Light Rain
7:06 AM 46.4 °F 45.2 °F - N/A% 29.93 in 0.2 mi North 3.5 mph - 0.00 in Rain Light Rain
7:36 AM 46.4 °F - - N/A% 29.93 in 0.5 mi Calm Calm - 0.00 in Fog Fog
7:42 AM 46.4 °F - - N/A% 29.93 in 1.0 mi Calm Calm - 0.00 in   Overcast
7:44 AM 46.4 °F - - N/A% 29.93 in 2.5 mi Calm Calm - 0.00 in   Mostly Cloudy
7:56 AM 45.9 °F - - N/A% 29.94 in 2.5 mi Calm Calm - 0.00 in   Scattered Clouds
8:06 AM 46.4 °F - - N/A% 29.93 in 10.0 mi Calm Calm - N/A   Partly Cloudy
8:16 AM 46.4 °F - - N/A% 29.93 in 1.5 mi Calm Calm - N/A   Mostly Cloudy
8:18 AM 48.2 °F - - N/A% 29.93 in 0.8 mi Calm Calm - N/A   Mist
8:24 AM 48.2 °F - - N/A% 29.93 in 0.2 mi Calm Calm - N/A Fog Fog
8:56 AM 48.9 °F - - N/A% 29.95 in 0.2 mi West 3.5 mph - N/A Fog Fog
9:12 AM 48.2 °F - - N/A% 29.94 in 0.5 mi Calm Calm - N/A Fog Fog
9:18 AM 50.0 °F - - N/A% 29.94 in 1.0 mi Calm Calm - N/A   Mostly Cloudy
9:20 AM 50.0 °F - - N/A% 29.93 in 1.5 mi Calm Calm - N/A   Mostly Cloudy
9:23 AM 51.8 °F - - N/A% 29.93 in 4.0 mi Calm Calm - N/A   Haze
9:36 AM 51.8 °F - - N/A% 29.93 in 10.0 mi Calm Calm - N/A   Scattered Clouds
10:32 AM 55.4 °F - - N/A% 29.93 in 1.8 mi WNW 4.6 mph - N/A   Clear
10:46 AM 57.2 °F - 57.2 °F 100% 29.93 in 3.0 mi WNW 3.5 mph - N/A   Clear
10:56 AM 59.9 °F - 57.9 °F 93% 29.94 in 3.0 mi Calm Calm - N/A   Clear
11:56 AM 59.9 °F - 52.9 °F 78% 29.94 in 1.8 mi WNW 3.5 mph - N/A   Haze
12:07 PM 60.8 °F - 53.6 °F 77% 29.93 in 3.0 mi Calm Calm - N/A   Haze
12:56 PM 63.9 °F - 52.9 °F 67% 29.94 in 10.0 mi Variable 3.5 mph - N/A   Clear
1:56 PM 65.8 °F - 54.0 °F 65% 29.92 in 8.0 mi Variable 4.6 mph - N/A   Clear
2:56 PM 64.9 °F - 52.9 °F 65% 29.92 in 10.0 mi WSW 3.5 mph - N/A   Clear
3:56 PM 57.9 °F - 50.0 °F 75% 29.92 in 10.0 mi SSW 4.6 mph - N/A   Clear
4:56 PM 54.0 °F - 52.0 °F 93% 29.91 in 10.0 mi South 5.8 mph - N/A   Clear
5:40 PM 51.8 °F - 51.8 °F 100% 29.90 in 3.0 mi South 5.8 mph - N/A   Scattered Clouds
5:44 PM 51.8 °F - 51.8 °F 100% 29.90 in 1.5 mi South 5.8 mph - N/A   Mostly Cloudy
5:46 PM 51.8 °F - 51.8 °F 100% 29.90 in 1.0 mi SSE 5.8 mph - N/A   Mostly Cloudy
5:56 PM 50.9 °F - 50.9 °F 100% 29.91 in 0.5 mi South 5.8 mph - N/A Fog Fog
6:11 PM 51.8 °F - 51.8 °F 100% 29.90 in 0.2 mi Variable 3.5 mph - N/A Fog Fog
6:28 PM 50.0 °F - 50.0 °F 100% 29.90 in 0.2 mi SE 4.6 mph - N/A Fog Fog
6:41 PM 51.8 °F - 51.8 °F 100% 29.91 in 0.5 mi Variable 3.5 mph - N/A Fog Fog
6:56 PM 50.0 °F - 50.0 °F 100% 29.91 in 0.2 mi SE 3.5 mph - N/A Fog Fog
7:03 PM 50.0 °F - 50.0 °F 100% 29.90 in 0.8 mi Calm Calm - N/A   Mostly Cloudy
7:05 PM 50.0 °F - 50.0 °F 100% 29.90 in 2.0 mi ENE 3.5 mph - N/A   Mostly Cloudy
7:09 PM 51.8 °F - 51.8 °F 100% 29.90 in 10.0 mi Calm Calm - N/A   Scattered Clouds
7:56 PM 52.0 °F - 52.0 °F 100% 29.92 in 10.0 mi Calm Calm - N/A   Clear
8:56 PM 54.0 °F - 54.0 °F 100% 29.92 in 10.0 mi Calm Calm - N/A   Clear
9:56 PM 54.0 °F - 54.0 °F 100% 29.93 in 10.0 mi Calm Calm - N/A   Clear
10:56 PM 54.0 °F - 54.0 °F 100% 29.92 in 10.0 mi Calm Calm - N/A   Clear
11:56 PM 48.9 °F - 48.9 °F 100% 29.93 in 10.0 mi Calm Calm - N/A   Clear